[[{"header":{"parameterUnit":"m.s-1","parameterCategory":1,"la1":30.2991,"la2":30.254,"lo1":-89.0895,"lo2":-89.0444,"dy":0.0017,"dx":0.0017,"nx":28,"ny":28,"refTime":"2023-08-25T21:00:00:Z","depth":0,"parameterNumber":2,"parameterNumberName":"U-component_of_WINDS"},"data":[0,0,0,0,0,0,0,0,0,0,0,0,0,0,0,0,0,0,0,0,0,0,0,0,0,0,0,0,0,0,0,0,0,0,0,0,0,0,0,0,0,0,0,0,0,0,0,0,0,0,0,0,0,0,0,0,0,0,0.8823,0.8824,0,0.8941,0.8942,0.8943,0.8994,0.8994,0.8994,0.8993,0.9114,0.9117,0.9121,0,0,0,0,0,0,0,0,0,0,0,0,0,0.8641,0.8644,0.8823,0.8824,0.8826,0.8941,0.8942,0.8944,0.8994,0.8994,0.8994,0.8993,0.9113,0.9117,0.9121,0,0,0,0,0,0,0,0,0,0,0,0,0,0.8735,0.8645,0.8823,0.8865,0.887,0.894,0.8942,0.8944,0.8994,0.8994,0.8994,0.8993,0.9112,0.9117,0.9122,0.9159,0,0,0.9137,0.9139,0,0,0,0,0,0,0,0,0.873,0.8742,0.8857,0.8862,0.8868,0.8952,0.8922,0.9016,0.8994,0.8947,0.8993,0.8993,0.9061,0.907,0.9093,0.9165,0.917,0.9138,0.9141,0.9143,0.9144,0,0,0,0,0,0,0,0.8723,0.8737,0.887,0.8859,0.8865,0.8877,0.8891,0.894,0.9004,0.8951,0.8955,0.8968,0.9063,0.9088,0.9096,0.9172,0.9137,0.9142,0.9145,0.9147,0.9279,0.928,0,0,0,0,0,0,0.871,0.8731,0.8866,0.8873,0.8797,0.8881,0.8896,0.8926,0.9004,0.9015,0.8968,0.897,0.9079,0.909,0.91,0.9149,0.9143,0.9148,0.9151,0.9279,0.928,0.928,0,0,0,0,0,0,0.8706,0.8721,0.8861,0.8803,0.8822,0.8884,0.8918,0.8928,0.8952,0.9017,0.9028,0.8981,0.9079,0.9093,0.9144,0.9154,0.915,0.9155,0.9278,0.9279,0.928,0.9246,0,0,0,0,0,0,0.87,0.8719,0.8735,0.8803,0.8825,0.8903,0.8918,0.8931,0.8961,0.8964,0.9032,0.9043,0.908,0.9136,0.9149,0.9161,0.9159,0.9278,0.9279,0.928,0.9247,0.9246,0.9245,0,0,0,0,0,0.8693,0.872,0.8735,0.8751,0.8845,0.8903,0.8916,0.8958,0.8961,0.8977,0.9018,0.9041,0.915,0.9141,0.9156,0.9169,0.9277,0.9279,0.928,0.9247,0.9246,0.9245,0,0,0,0,0,0,0.8651,0.873,0.8747,0.8797,0.8843,0.8912,0.8933,0.8955,0.9001,0.9002,0.9053,0.9067,0.9114,0.9147,0.9134,0.9209,0.9216,0.922,0.9186,0.9185,0.9184,0.9176,0.9163,0,0,0,0,0,0.8648,0.8689,0.8755,0.8793,0.8815,0.887,0.8897,0.8925,0.8975,0.8994,0.9039,0.9086,0.9132,0.916,0.9205,0.9251,0.9267,0.9268,0.9267,0.9266,0.9269,0.9296,0.9297,0.9283,0.9283,0.9283,0,0,0.8641,0.8689,0.8712,0.8786,0.8825,0.8866,0.8886,0.8928,0.8959,0.9001,0.9052,0.9086,0.9142,0.919,0.9214,0.9219,0.9276,0.9267,0.9266,0.927,0.9297,0.9298,0.9299,0.9284,0.9284,0.9284,0,0,0.865,0.869,0.8726,0.8765,0.8823,0.8859,0.8867,0.8933,0.8957,0.9009,0.9041,0.9078,0.9154,0.9193,0.9222,0.9244,0.9267,0.9258,0.9253,0.9278,0.9279,0.928,0.9288,0.929,0.926,0.926,0.926,0,0.8634,0.8697,0.8742,0.8783,0.8814,0.8853,0.8889,0.8924,0.8994,0.9015,0.902,0.9116,0.9157,0.9215,0.922,0.9242,0.9253,0.925,0.9275,0.9277,0.9279,0.9287,0.9289,0.9259,0.9259,0.9259,0.9259,0,0.8675,0.8718,0.874,0.8807,0.884,0.8879,0.8928,0.8957,0.8982,0.9017,0.9069,0.9119,0.9174,0.919,0.9215,0.9251,0.9253,0.9265,0.9273,0.9278,0.9286,0.9289,0.9257,0.9257,0.9258,0.9258,0,0,0.8661,0.8751,0.8759,0.8789,0.8856,0.889,0.893,0.8984,0.9008,0.9054,0.9089,0.9152,0.9165,0.9198,0.9228,0.925,0.9264,0.926,0.9262,0.9259,0.9306,0.9296,0.9299,0.9279,0.9279,0.928,0.9302,0,0.8679,0.8752,0.8793,0.8849,0.8889,0.8927,0.8961,0.9006,0.904,0.9079,0.9116,0.916,0.9173,0.9193,0.9217,0.9257,0.9274,0.9256,0.9311,0.9313,0.9296,0.9304,0.9294,0.9312,0.9305,0.9306,0.9306,0,0.871,0.8756,0.8816,0.8878,0.8897,0.8927,0.898,0.9016,0.9067,0.909,0.9127,0.9156,0.9199,0.9203,0.9263,0.925,0.9275,0.9298,0.93,0.9307,0.931,0.9311,0.9319,0.9321,0.9312,0.9311,0.9311,0,0.8693,0.877,0.8817,0.8841,0.8915,0.8935,0.8967,0.9018,0.9048,0.9093,0.9113,0.9163,0.9191,0.9229,0.9271,0.927,0.9326,0.9334,0.9346,0.9345,0.9357,0.9356,0.9369,0.9372,0.9372,0.9372,0.9372,0,0.8709,0.8745,0.881,0.8838,0.8879,0.8925,0.8964,0.8998,0.9043,0.9078,0.9113,0.9145,0.9199,0.9238,0.927,0.9315,0.9327,0.9347,0.9355,0.9344,0.9341,0.9361,0.9361,0.9373,0.9373,0.9373,0.9373,0,0.8698,0.8744,0.8796,0.8861,0.8878,0.8905,0.8961,0.899,0.9025,0.9069,0.9082,0.9137,0.9185,0.923,0.9294,0.9316,0.936,0.9371,0.9343,0.9347,0.9358,0.9356,0.9384,0.939,0.9389,0.9389,0.9389,0,0.8706,0.8734,0.8802,0.8828,0.8859,0.8901,0.8931,0.8977,0.9007,0.9067,0.9088,0.9138,0.9181,0.9255,0.9301,0.9349,0.9362,0.9368,0.9369,0.9357,0.9362,0.936,0.9363,0.9367,0.9367,0.9367,0.9367,0,0.8714,0.8735,0.8778,0.8828,0.8864,0.8905,0.8949,0.8968,0.9022,0.9054,0.9103,0.9136,0.92,0.925,0.9303,0.9336,0.936,0.9366,0.9371,0.936,0.9343,0.9352,0.934,0.9365,0.9365,0.9365,0.9365,0.9365,0.8712,0.8739,0.8791,0.8837,0.8875,0.8914,0.8944,0.8983,0.9024,0.9081,0.9105,0.9154,0.9204,0.9279,0.931,0.9349,0.9355,0.9363,0.9365,0.9367,0.9364,0.9336,0.9359,0.9359,0.936,0.936,0.936,0,0.8722,0.8757,0.88,0.8859,0.8895,0.8915,0.8963,0.8992,0.9035,0.908,0.9121,0.9177,0.9224,0.9273,0.9323,0.9345,0.9358,0.9357,0.9356,0.9363,0.9356,0.9346,0.9346,0.9346,0.9346,0.9346,0.9346,0.9346,0.8732,0.8778,0.8805,0.8869,0.8904,0.8953,0.8979,0.9015,0.9051,0.9111,0.9151,0.9183,0.9229,0.9283,0.9327,0.934,0.9357,0.9353,0.937,0.9363,0.9363,0.9364,0.9355,0.9357,0.9357,0.9373,0.9373,0.9374]},{"header":{"parameterUnit":"m.s-1","parameterCategory":1,"la1":30.2991,"la2":30.254,"lo1":-89.0895,"lo2":-89.0444,"dy":0.0017,"dx":0.0017,"nx":28,"ny":28,"refTime":"2023-08-25T21:00:00:Z","depth":0,"parameterNumber":3,"parameterNumberName":"V-component_of_WINDS"},"data":[0,0,0,0,0,0,0,0,0,0,0,0,0,0,0,0,0,0,0,0,0,0,0,0,0,0,0,0,0,0,0,0,0,0,0,0,0,0,0,0,0,0,0,0,0,0,0,0,0,0,0,0,0,0,0,0,0,0,3.3897,3.3897,0,3.387,3.387,3.3869,3.3852,3.3852,3.3852,3.3852,3.382,3.382,3.3819,0,0,0,0,0,0,0,0,0,0,0,0,0,3.393,3.393,3.3897,3.3897,3.3896,3.387,3.387,3.3869,3.3852,3.3852,3.3852,3.3852,3.3821,3.382,3.3819,0,0,0,0,0,0,0,0,0,0,0,0,0,3.3911,3.393,3.3897,3.3885,3.3883,3.387,3.387,3.3869,3.3852,3.3852,3.3852,3.3852,3.3821,3.382,3.3819,3.3814,0,0,3.3815,3.3815,0,0,0,0,0,0,0,0,3.3912,3.391,3.3887,3.3886,3.3884,3.3865,3.387,3.3851,3.3852,3.3864,3.3852,3.3852,3.3835,3.3833,3.3828,3.3813,3.3811,3.3815,3.3814,3.3814,3.3814,0,0,0,0,0,0,0,3.3913,3.3911,3.3886,3.3887,3.3885,3.388,3.3877,3.3866,3.385,3.3863,3.3862,3.3859,3.3834,3.3829,3.3827,3.3811,3.3815,3.3814,3.3813,3.3813,3.3791,3.3791,0,0,0,0,0,0,3.3917,3.3912,3.3887,3.3885,3.3898,3.3879,3.3876,3.3871,3.385,3.3847,3.3859,3.3858,3.3831,3.3828,3.3826,3.3819,3.3814,3.3813,3.3812,3.3791,3.3791,3.3791,0,0,0,0,0,0,3.3918,3.3915,3.3888,3.3898,3.3894,3.3879,3.3873,3.387,3.3865,3.3848,3.3844,3.3857,3.3831,3.3827,3.3817,3.3818,3.3812,3.3811,3.379,3.3791,3.3791,3.3806,0,0,0,0,0,0,3.3919,3.3915,3.3914,3.3898,3.3894,3.3881,3.3873,3.387,3.3864,3.3862,3.3845,3.3842,3.383,3.3819,3.3816,3.3816,3.381,3.379,3.3791,3.3791,3.3805,3.3806,3.3807,0,0,0,0,0,3.392,3.3919,3.3914,3.3911,3.3892,3.3881,3.3879,3.3867,3.3864,3.3862,3.3851,3.3842,3.3818,3.3818,3.3815,3.3814,3.379,3.379,3.3791,3.3805,3.3806,3.3807,0,0,0,0,0,0,3.3933,3.3916,3.3911,3.3905,3.3895,3.3879,3.3876,3.3869,3.3859,3.3858,3.3842,3.3838,3.383,3.3821,3.3822,3.3809,3.3803,3.3803,3.3815,3.3816,3.3817,3.3819,3.3809,0,0,0,0,0,3.3936,3.393,3.3914,3.391,3.3906,3.3892,3.3887,3.3879,3.3867,3.3862,3.385,3.3839,3.3828,3.3822,3.3811,3.3804,3.3799,3.3802,3.3803,3.3804,3.3803,3.3799,3.3799,3.3791,3.3791,3.3791,0,0,3.394,3.393,3.3927,3.3913,3.3904,3.3897,3.3888,3.3881,3.3875,3.3861,3.3851,3.3842,3.3828,3.3819,3.3815,3.3811,3.3805,3.3804,3.3805,3.3804,3.3799,3.38,3.38,3.3792,3.3792,3.3792,0,0,3.3944,3.3937,3.3932,3.3924,3.3912,3.3903,3.3902,3.3887,3.3881,3.3871,3.386,3.3853,3.3836,3.3826,3.3819,3.3821,3.3812,3.3817,3.3823,3.3819,3.3819,3.382,3.382,3.382,3.3817,3.3817,3.3817,0,3.3951,3.3941,3.393,3.3924,3.3918,3.3906,3.3901,3.3894,3.3878,3.3873,3.387,3.3849,3.3839,3.3828,3.3828,3.3823,3.3821,3.3819,3.382,3.3821,3.3821,3.3821,3.3821,3.3818,3.3818,3.3818,3.3818,0,3.395,3.3943,3.3941,3.3928,3.3921,3.3915,3.3903,3.3898,3.389,3.3881,3.3872,3.3859,3.3846,3.3843,3.3835,3.3831,3.3829,3.3823,3.3817,3.3822,3.3822,3.3822,3.3819,3.3819,3.3818,3.3818,0,0,3.396,3.3943,3.3942,3.3936,3.3922,3.3916,3.3909,3.3898,3.3894,3.3883,3.3877,3.3863,3.3858,3.385,3.3841,3.3838,3.3839,3.3832,3.3832,3.3834,3.3833,3.3838,3.3838,3.3834,3.3834,3.3834,3.3835,0,3.3962,3.3952,3.3942,3.3935,3.3928,3.3917,3.3911,3.3902,3.3893,3.3886,3.3876,3.3866,3.386,3.3856,3.3851,3.384,3.3839,3.384,3.3827,3.3827,3.383,3.3838,3.3842,3.3843,3.3834,3.3834,3.3834,0,3.3963,3.3955,3.3947,3.3934,3.3931,3.3926,3.3915,3.3908,3.3897,3.3891,3.3883,3.3874,3.3865,3.3861,3.3849,3.385,3.3844,3.3838,3.3837,3.3835,3.383,3.3835,3.3843,3.3843,3.3834,3.3834,3.3834,0,3.3972,3.3958,3.3952,3.3947,3.3932,3.3929,3.3922,3.3911,3.3905,3.3895,3.3891,3.388,3.3873,3.3864,3.3852,3.385,3.3841,3.3836,3.3835,3.3836,3.3833,3.3833,3.384,3.383,3.383,3.383,3.383,0,3.3974,3.397,3.3956,3.3952,3.3946,3.3935,3.3929,3.3922,3.3912,3.3905,3.3895,3.3889,3.3874,3.3865,3.3856,3.3847,3.3844,3.3838,3.3836,3.3839,3.384,3.3834,3.3834,3.383,3.383,3.383,3.383,0,3.3983,3.3973,3.3965,3.3952,3.3949,3.3945,3.3933,3.3929,3.392,3.3912,3.3909,3.3896,3.3886,3.3873,3.3858,3.3852,3.3844,3.384,3.3848,3.3847,3.3847,3.3847,3.3849,3.3849,3.3841,3.3841,3.3841,0,3.3985,3.3981,3.3968,3.3964,3.3958,3.3951,3.3945,3.3934,3.3928,3.3916,3.3912,3.3902,3.3892,3.3877,3.3864,3.3853,3.3849,3.385,3.3847,3.385,3.3848,3.3848,3.3848,3.3851,3.3851,3.3851,3.3851,0,3.399,3.3985,3.3978,3.397,3.3963,3.3956,3.3947,3.3944,3.3931,3.3925,3.3915,3.3909,3.3895,3.3884,3.3871,3.3863,3.3855,3.3853,3.3852,3.3855,3.386,3.3857,3.385,3.3853,3.3853,3.3852,3.3852,3.3852,3.3994,3.3991,3.3982,3.3974,3.3967,3.396,3.3955,3.3946,3.3938,3.3927,3.3921,3.3911,3.39,3.3882,3.3874,3.3866,3.3863,3.3862,3.3861,3.3861,3.3862,3.3862,3.3864,3.3863,3.3863,3.3863,3.3863,0,3.3998,3.3992,3.3985,3.3975,3.3969,3.3964,3.3954,3.3949,3.3941,3.3932,3.3924,3.3913,3.3902,3.389,3.3879,3.3874,3.387,3.3872,3.3871,3.387,3.3865,3.3867,3.3875,3.3875,3.3875,3.3875,3.3875,3.3875,3.4,3.3994,3.3988,3.3978,3.3972,3.3963,3.3958,3.3951,3.3944,3.3932,3.3925,3.3917,3.3906,3.3894,3.3884,3.3881,3.3877,3.3879,3.3875,3.3871,3.387,3.3869,3.387,3.3879,3.3879,3.3879,3.3879,3.3879]}]]